Location: Berg
(48.5667°N, 13.9833°E)
Time: 18:32:04
(UTC+00:00)

Lacrosse 5 rocket - Visible Passes

Search period start: 08 August 2020 00:00
Search period end: 18 August 2020 00:00
Orbit: 464 x 632 km, 57.0° (Epoch: 07 August)

Date Brightness Start Highest point End Pass type
(mag) Time Alt. Az. Time Alt. Az. Time Alt. Az.
15 Aug 4.2 02:32:17 10° SE 02:33:40 11° ESE 02:35:03 10° ESE visible
16 Aug 4.0 02:25:13 10° SSE 02:27:44 15° ESE 02:30:17 10° E visible
17 Aug 3.7 02:18:39 10° S 02:21:49 19° SE 02:25:03 10° E visible
